Time,TemperatureF,DewpointF,PressureIn,WindDirection,WindDirectionDegrees,WindSpeedMPH,WindSpeedGustMPH,Humidity,HourlyPrecipIn,Conditions,Clouds,dailyrainin,SolarRadiationWatts/m^2,SoftwareType,DateUTC
2013-02-22 00:02:00,33.9,18.1,29.94,WNW,303,0.0,1.0,52,0.00,,BKN200,0.00,0.00,VWS V14.01,2013-02-22 07:02:00,
2013-02-22 00:07:00,33.8,18.0,29.94,WNW,303,0.0,3.0,52,0.00,,BKN200,0.00,0.00,VWS V14.01,2013-02-22 07:07:00,
2013-02-22 00:12:00,33.7,18.4,29.94,WNW,303,0.0,0.0,53,0.00,,BKN200,0.00,0.00,VWS V14.01,2013-02-22 07:12:00,
2013-02-22 00:17:00,33.6,18.3,29.94,WNW,303,0.0,0.0,53,0.00,,BKN200,0.00,0.00,VWS V14.01,2013-02-22 07:17:00,
2013-02-22 00:22:00,33.5,18.2,29.94,WNW,303,0.0,0.0,53,0.00,,BKN200,0.00,0.00,VWS V14.01,2013-02-22 07:22:00,
2013-02-22 00:27:00,33.4,18.1,29.94,WNW,303,0.0,0.0,53,0.00,,BKN200,0.00,0.00,VWS V14.01,2013-02-22 07:27:00,
2013-02-22 00:32:00,33.3,18.0,29.94,WNW,303,0.0,0.0,53,0.00,,BKN200,0.00,0.00,VWS V14.01,2013-02-22 07:32:00,
2013-02-22 00:37:00,33.3,18.0,29.94,WNW,303,0.0,0.0,53,0.00,,BKN200,0.00,0.00,VWS V14.01,2013-02-22 07:37:00,
2013-02-22 00:42:00,33.2,18.4,29.94,WNW,303,0.0,0.0,54,0.00,,BKN200,0.00,0.00,VWS V14.01,2013-02-22 07:42:00,
2013-02-22 00:47:00,33.0,18.2,29.94,WNW,303,0.0,0.0,54,0.00,,BKN200,0.00,0.00,VWS V14.01,2013-02-22 07:47:00,
2013-02-22 00:52:00,32.8,18.4,29.94,WNW,303,0.0,2.0,55,0.00,,BKN200,0.00,0.00,VWS V14.01,2013-02-22 07:52:00,
2013-02-22 00:57:00,32.7,18.8,29.94,WNW,303,0.0,0.0,56,0.00,,BKN200,0.00,0.00,VWS V14.01,2013-02-22 07:57:00,
2013-02-22 01:02:00,32.5,18.6,29.94,WNW,303,0.0,0.0,56,0.00,,BKN200,0.00,0.00,VWS V14.01,2013-02-22 08:02:00,
2013-02-22 01:07:00,32.4,18.5,29.94,WNW,303,0.0,0.0,56,0.00,,BKN200,0.00,0.00,VWS V14.01,2013-02-22 08:07:00,
2013-02-22 01:12:00,32.2,18.3,29.94,WNW,303,0.0,0.0,56,0.00,,BKN200,0.00,0.00,VWS V14.01,2013-02-22 08:12:00,
2013-02-22 01:17:00,32.0,18.5,29.94,WNW,303,0.0,0.0,57,0.00,,BKN200,0.00,0.00,VWS V14.01,2013-02-22 08:17:00,
2013-02-22 01:22:00,31.8,18.3,29.94,WNW,303,0.0,0.0,57,0.00,,BKN200,0.00,0.00,VWS V14.01,2013-02-22 08:22:00,
2013-02-22 01:27:00,31.6,18.1,29.94,WNW,303,0.0,0.0,57,0.00,,BKN200,0.00,0.00,VWS V14.01,2013-02-22 08:27:00,
2013-02-22 01:32:00,31.4,18.4,29.94,WNW,303,0.0,0.0,58,0.00,,BKN200,0.00,0.00,VWS V14.01,2013-02-22 08:32:00,
2013-02-22 01:37:00,31.2,18.2,29.94,WNW,303,0.0,0.0,58,0.00,,BKN200,0.00,0.00,VWS V14.01,2013-02-22 08:37:00,
2013-02-22 01:42:00,31.0,18.4,29.94,WNW,303,0.0,0.0,59,0.00,,BKN200,0.00,0.00,VWS V14.01,2013-02-22 08:42:00,
2013-02-22 01:47:00,30.8,17.8,29.94,WNW,303,0.0,0.0,58,0.00,,BKN200,0.00,0.00,VWS V14.01,2013-02-22 08:47:00,
2013-02-22 01:52:00,30.7,18.1,29.94,WNW,303,0.0,0.0,59,0.00,,BKN200,0.00,0.00,VWS V14.01,2013-02-22 08:52:00,
2013-02-22 01:57:00,30.4,18.2,29.94,WNW,303,0.0,0.0,60,0.00,,BKN200,0.00,0.00,VWS V14.01,2013-02-22 08:57:00,
2013-02-22 02:02:00,30.3,18.1,29.94,WNW,303,0.0,0.0,60,0.00,,OVC070,0.00,0.00,VWS V14.01,2013-02-22 09:02:00,
2013-02-22 02:07:00,30.1,17.9,29.94,WNW,303,0.0,0.0,60,0.00,,OVC070,0.00,0.00,VWS V14.01,2013-02-22 09:07:00,
2013-02-22 02:12:00,29.9,18.1,29.94,WNW,303,0.0,0.0,61,0.00,,OVC070,0.00,0.00,VWS V14.01,2013-02-22 09:12:00,
2013-02-22 02:17:00,29.8,18.0,29.94,WNW,303,0.0,0.0,61,0.00,,OVC070,0.00,0.00,VWS V14.01,2013-02-22 09:17:00,
2013-02-22 02:22:00,29.6,17.8,29.94,WNW,303,0.0,0.0,61,0.00,,OVC070,0.00,0.00,VWS V14.01,2013-02-22 09:22:00,
2013-02-22 02:27:00,29.5,18.1,29.94,WNW,303,0.0,0.0,62,0.00,,OVC070,0.00,0.00,VWS V14.01,2013-02-22 09:27:00,
2013-02-22 02:32:00,29.4,18.0,29.94,WNW,303,0.0,0.0,62,0.00,,OVC070,0.00,0.00,VWS V14.01,2013-02-22 09:32:00,
2013-02-22 02:37:00,29.2,17.8,29.94,WNW,303,1.0,2.0,62,0.00,,OVC070,0.00,0.00,VWS V14.01,2013-02-22 09:37:00,
2013-02-22 02:42:00,29.1,18.1,29.94,WNW,303,0.0,2.0,63,0.00,,OVC070,0.00,0.00,VWS V14.01,2013-02-22 09:42:00,
2013-02-22 02:47:00,29.0,18.0,29.94,WNW,303,0.0,1.0,63,0.00,,OVC070,0.00,0.00,VWS V14.01,2013-02-22 09:47:00,
2013-02-22 02:52:00,29.0,18.0,29.93,WNW,303,0.0,2.0,63,0.00,,OVC070,0.00,0.00,VWS V14.01,2013-02-22 09:52:00,
2013-02-22 02:57:00,29.0,18.0,29.93,WNW,303,0.0,0.0,63,0.00,,OVC070,0.00,0.00,VWS V14.01,2013-02-22 09:57:00,
2013-02-22 03:02:00,28.9,17.9,29.93,WNW,303,0.0,0.0,63,0.00,,SCT070,0.00,0.00,VWS V14.01,2013-02-22 10:02:00,
2013-02-22 03:07:00,28.8,17.8,29.93,WNW,303,0.0,1.0,63,0.00,,SCT070,0.00,0.00,VWS V14.01,2013-02-22 10:07:00,
2013-02-22 03:12:00,28.8,17.8,29.93,WNW,303,0.0,0.0,63,0.00,,SCT070,0.00,0.00,VWS V14.01,2013-02-22 10:12:00,
2013-02-22 03:17:00,28.7,17.7,29.93,WNW,303,0.0,0.0,63,0.00,,SCT070,0.00,0.00,VWS V14.01,2013-02-22 10:17:00,
2013-02-22 03:23:00,28.6,17.6,29.93,WNW,303,0.0,0.0,63,0.00,,SCT070,0.00,0.00,VWS V14.01,2013-02-22 10:23:00,
2013-02-22 03:28:00,28.5,17.1,29.94,WNW,303,0.0,0.0,62,0.00,,SCT070,0.00,0.00,VWS V14.01,2013-02-22 10:28:00,
2013-02-22 03:33:00,28.4,17.1,29.94,WNW,303,0.0,0.0,62,0.00,,SCT070,0.00,0.00,VWS V14.01,2013-02-22 10:33:00,
2013-02-22 03:38:00,28.2,16.9,29.94,WNW,303,0.0,1.0,62,0.00,,SCT070,0.00,0.00,VWS V14.01,2013-02-22 10:38:00,
2013-02-22 03:43:00,28.0,16.7,29.94,WNW,303,0.0,2.0,62,0.00,,SCT070,0.00,0.00,VWS V14.01,2013-02-22 10:43:00,
2013-02-22 03:48:00,27.8,16.5,29.94,WNW,303,0.0,2.0,62,0.00,,SCT070,0.00,0.00,VWS V14.01,2013-02-22 10:48:00,
2013-02-22 03:53:00,27.7,16.4,29.94,WNW,303,0.0,0.0,62,0.00,,SCT070,0.00,0.00,VWS V14.01,2013-02-22 10:53:00,
2013-02-22 03:58:00,27.5,16.2,29.94,WNW,303,0.0,0.0,62,0.00,,SCT070,0.00,0.00,VWS V14.01,2013-02-22 10:58:00,
2013-02-22 04:03:00,27.4,16.5,29.94,WNW,303,0.0,1.0,63,0.00,,BKN140,0.00,0.00,VWS V14.01,2013-02-22 11:03:00,
2013-02-22 04:08:00,27.3,16.8,29.94,WNW,303,0.0,1.0,64,0.00,,BKN140,0.00,0.00,VWS V14.01,2013-02-22 11:08:00,
2013-02-22 04:13:00,27.2,17.0,29.95,WNW,303,0.0,1.0,65,0.00,,BKN140,0.00,0.00,VWS V14.01,2013-02-22 11:13:00,
2013-02-22 04:18:00,27.1,16.9,29.95,WNW,303,0.0,0.0,65,0.00,,BKN140,0.00,0.00,VWS V14.01,2013-02-22 11:18:00,
2013-02-22 04:23:00,27.1,16.6,29.95,WNW,303,0.0,0.0,64,0.00,,BKN140,0.00,0.00,VWS V14.01,2013-02-22 11:23:00,
2013-02-22 04:28:00,27.0,16.5,29.95,WNW,303,0.0,0.0,64,0.00,,BKN140,0.00,0.00,VWS V14.01,2013-02-22 11:28:00,
2013-02-22 04:33:00,27.0,16.8,29.95,WNW,303,0.0,0.0,65,0.00,,BKN140,0.00,0.00,VWS V14.01,2013-02-22 11:33:00,
2013-02-22 04:38:00,27.1,17.3,29.95,WNW,303,0.0,0.0,66,0.00,,BKN140,0.00,0.00,VWS V14.01,2013-02-22 11:38:00,
2013-02-22 04:43:00,27.3,17.5,29.95,WNW,303,0.0,0.0,66,0.00,,BKN140,0.00,0.00,VWS V14.01,2013-02-22 11:43:00,
2013-02-22 04:48:00,27.4,17.5,29.96,WNW,303,0.0,0.0,66,0.00,,BKN140,0.00,0.00,VWS V14.01,2013-02-22 11:48:00,
2013-02-22 04:53:00,27.4,17.5,29.96,WNW,303,0.0,0.0,66,0.00,,BKN140,0.00,0.00,VWS V14.01,2013-02-22 11:53:00,
2013-02-22 04:58:00,27.5,17.6,29.95,WNW,303,0.0,2.0,66,0.00,,BKN140,0.00,0.00,VWS V14.01,2013-02-22 11:58:00,
2013-02-22 05:03:00,27.6,17.7,29.96,WNW,303,0.0,0.0,66,0.00,,BKN160,0.00,0.00,VWS V14.01,2013-02-22 12:03:00,
2013-02-22 05:08:00,27.7,17.8,29.96,WNW,303,0.0,1.0,66,0.00,,BKN160,0.00,0.00,VWS V14.01,2013-02-22 12:08:00,
2013-02-22 05:13:00,27.8,18.3,29.96,WNW,303,0.0,2.0,67,0.00,,BKN160,0.00,0.00,VWS V14.01,2013-02-22 12:13:00,
2013-02-22 05:18:00,28.0,18.8,29.96,WNW,303,1.0,2.0,68,0.00,,BKN160,0.00,0.00,VWS V14.01,2013-02-22 12:18:00,
2013-02-22 05:23:00,28.1,18.9,29.97,WNW,303,0.0,2.0,68,0.00,,BKN160,0.00,0.00,VWS V14.01,2013-02-22 12:23:00,
2013-02-22 05:28:00,28.2,19.0,29.97,WNW,303,0.0,2.0,68,0.00,,BKN160,0.00,0.00,VWS V14.01,2013-02-22 12:28:00,
2013-02-22 05:34:00,28.3,19.1,29.97,WNW,303,0.0,0.0,68,0.00,,BKN160,0.00,0.00,VWS V14.01,2013-02-22 12:34:00,
2013-02-22 05:39:00,28.3,19.1,29.97,WNW,303,0.0,0.0,68,0.00,,BKN160,0.00,0.00,VWS V14.01,2013-02-22 12:39:00,
2013-02-22 05:44:00,28.3,19.1,29.97,WNW,303,0.0,0.0,68,0.00,,BKN160,0.00,0.00,VWS V14.01,2013-02-22 12:44:00,
2013-02-22 05:49:00,28.3,18.8,29.97,WNW,303,0.0,2.0,67,0.00,,BKN160,0.00,0.00,VWS V14.01,2013-02-22 12:49:00,
2013-02-22 05:54:00,28.3,18.8,29.97,WNW,303,0.0,2.0,67,0.00,,BKN160,0.00,0.00,VWS V14.01,2013-02-22 12:54:00,
2013-02-22 05:59:00,28.3,18.4,29.97,WNW,303,0.0,0.0,66,0.00,,BKN160,0.00,0.00,VWS V14.01,2013-02-22 12:59:00,
2013-02-22 06:04:00,28.3,18.4,29.97,WNW,303,0.0,1.0,66,0.00,,SCT160,0.00,0.00,VWS V14.01,2013-02-22 13:04:00,
2013-02-22 06:09:00,28.3,18.8,29.96,WNW,303,0.0,0.0,67,0.00,,SCT160,0.00,0.00,VWS V14.01,2013-02-22 13:09:00,
2013-02-22 06:14:00,28.3,18.8,29.97,WNW,303,0.0,0.0,67,0.00,,SCT160,0.00,0.00,VWS V14.01,2013-02-22 13:14:00,
2013-02-22 06:19:00,28.3,18.8,29.96,WNW,303,0.0,0.0,67,0.00,,SCT160,0.00,0.00,VWS V14.01,2013-02-22 13:19:00,
2013-02-22 06:24:00,28.2,18.7,29.96,WNW,303,0.0,0.0,67,0.00,,SCT160,0.00,0.00,VWS V14.01,2013-02-22 13:24:00,
2013-02-22 06:29:00,28.1,18.6,29.97,WNW,303,0.0,0.0,67,0.00,,SCT160,0.00,0.00,VWS V14.01,2013-02-22 13:29:00,
2013-02-22 06:34:00,28.1,18.6,29.97,WNW,303,0.0,0.0,67,0.00,,SCT160,0.00,0.00,VWS V14.01,2013-02-22 13:34:00,
2013-02-22 06:39:00,27.9,18.4,29.97,WNW,303,0.0,0.0,67,0.00,,SCT160,0.00,0.00,VWS V14.01,2013-02-22 13:39:00,
2013-02-22 06:44:00,27.9,18.4,29.96,WNW,303,0.0,0.0,67,0.00,,SCT160,0.00,5.00,VWS V14.01,2013-02-22 13:44:00,
2013-02-22 06:49:00,27.8,18.3,29.96,WNW,303,0.0,0.0,67,0.00,,SCT160,0.00,9.00,VWS V14.01,2013-02-22 13:49:00,
2013-02-22 06:54:00,27.6,18.1,29.97,WNW,303,0.0,0.0,67,0.00,,SCT160,0.00,12.00,VWS V14.01,2013-02-22 13:54:00,
2013-02-22 06:59:00,27.5,18.3,29.97,WNW,303,0.0,0.0,68,0.00,,SCT160,0.00,14.00,VWS V14.01,2013-02-22 13:59:00,
2013-02-22 07:04:00,27.4,17.9,29.97,WNW,303,0.0,0.0,67,0.00,,BKN070,0.00,14.00,VWS V14.01,2013-02-22 14:04:00,
2013-02-22 07:09:00,27.3,18.1,29.97,WNW,303,0.0,0.0,68,0.00,,BKN070,0.00,21.00,VWS V14.01,2013-02-22 14:09:00,
2013-02-22 07:14:00,27.3,18.1,29.97,WNW,303,0.0,0.0,68,0.00,,BKN070,0.00,37.00,VWS V14.01,2013-02-22 14:14:00,
2013-02-22 07:19:00,27.2,18.0,29.98,WNW,303,0.0,0.0,68,0.00,,BKN070,0.00,47.00,VWS V14.01,2013-02-22 14:19:00,
2013-02-22 07:24:00,27.2,18.0,29.98,WNW,303,0.0,0.0,68,0.00,,BKN070,0.00,47.00,VWS V14.01,2013-02-22 14:24:00,
2013-02-22 07:29:00,27.2,18.4,29.98,WNW,303,0.0,0.0,69,0.00,,BKN070,0.00,46.00,VWS V14.01,2013-02-22 14:29:00,
2013-02-22 07:34:00,27.5,19.4,29.98,WNW,303,0.0,0.0,71,0.00,,BKN070,0.00,46.00,VWS V14.01,2013-02-22 14:34:00,
2013-02-22 07:39:00,27.6,19.1,29.98,WNW,303,0.0,0.0,70,0.00,,BKN070,0.00,56.00,VWS V14.01,2013-02-22 14:39:00,
2013-02-22 07:44:00,27.9,19.7,29.98,WNW,303,0.0,0.0,71,0.00,,BKN070,0.00,90.00,VWS V14.01,2013-02-22 14:44:00,
2013-02-22 07:50:00,28.2,20.0,29.99,WNW,303,0.0,0.0,71,0.00,,BKN070,0.00,79.00,VWS V14.01,2013-02-22 14:50:00,
2013-02-22 07:55:00,28.5,20.0,29.99,WNW,303,0.0,1.0,70,0.00,,BKN070,0.00,69.00,VWS V14.01,2013-02-22 14:55:00,
2013-02-22 08:00:00,28.9,20.4,29.99,WNW,303,0.0,0.0,70,0.00,,BKN070,0.00,70.00,VWS V14.01,2013-02-22 15:00:00,
2013-02-22 08:05:00,29.1,20.5,29.99,WNW,303,0.0,0.0,70,0.00,,SCT042,0.00,83.00,VWS V14.01,2013-02-22 15:05:00,
2013-02-22 08:10:00,29.4,20.8,30.00,WNW,303,0.0,0.0,70,0.00,,SCT042,0.00,102.00,VWS V14.01,2013-02-22 15:10:00,
2013-02-22 08:15:00,29.7,20.8,30.00,WNW,303,0.0,0.0,69,0.00,,SCT042,0.00,121.00,VWS V14.01,2013-02-22 15:15:00,
2013-02-22 08:20:00,30.2,21.3,30.00,WNW,303,0.0,0.0,69,0.00,,SCT042,0.00,114.00,VWS V14.01,2013-02-22 15:20:00,
2013-02-22 08:25:00,30.7,21.4,30.00,South,191,0.0,0.0,68,0.00,,SCT042,0.00,104.00,VWS V14.01,2013-02-22 15:25:00,
2013-02-22 08:30:00,31.2,22.2,30.00,South,191,0.0,0.0,69,0.00,,SCT042,0.00,90.00,VWS V14.01,2013-02-22 15:30:00,
2013-02-22 08:35:00,31.6,22.3,30.00,South,191,0.0,1.0,68,0.00,,SCT042,0.00,98.00,VWS V14.01,2013-02-22 15:35:00,
2013-02-22 08:40:00,31.7,22.4,30.00,South,191,0.0,0.0,68,0.00,,SCT042,0.00,172.00,VWS V14.01,2013-02-22 15:40:00,
2013-02-22 08:45:00,32.3,22.6,30.00,South,191,0.0,0.0,67,0.00,,SCT042,0.00,278.00,VWS V14.01,2013-02-22 15:45:00,
2013-02-22 08:50:00,33.2,23.1,30.00,South,191,0.0,1.0,66,0.00,,SCT042,0.00,432.00,VWS V14.01,2013-02-22 15:50:00,
2013-02-22 08:55:00,34.1,23.2,30.00,South,191,0.0,0.0,64,0.00,,SCT042,0.00,432.00,VWS V14.01,2013-02-22 15:55:00,
2013-02-22 09:00:00,34.5,22.8,30.00,South,191,0.0,1.0,62,0.00,,SCT080,0.00,503.00,VWS V14.01,2013-02-22 16:00:00,
2013-02-22 09:05:00,35.0,22.9,30.00,ESE,110,1.0,4.0,61,0.00,,SCT080,0.00,255.00,VWS V14.01,2013-02-22 16:05:00,
2013-02-22 09:10:00,35.1,22.2,30.00,South,173,0.0,3.0,59,0.00,,SCT080,0.00,385.00,VWS V14.01,2013-02-22 16:10:00,
2013-02-22 09:15:00,35.1,22.2,30.00,South,173,1.0,3.0,59,0.00,,SCT080,0.00,320.00,VWS V14.01,2013-02-22 16:15:00,
2013-02-22 09:20:00,35.2,22.3,30.00,South,173,1.0,1.0,59,0.00,,SCT080,0.00,313.00,VWS V14.01,2013-02-22 16:20:00,
2013-02-22 09:25:00,35.6,22.7,30.00,East,97,3.0,5.0,59,0.00,,SCT080,0.00,508.00,VWS V14.01,2013-02-22 16:25:00,
2013-02-22 09:30:00,36.3,23.0,30.00,ESE,118,3.0,4.0,58,0.00,,SCT080,0.00,410.00,VWS V14.01,2013-02-22 16:30:00,
2013-02-22 09:35:00,36.8,22.6,30.00,ESE,118,0.0,0.0,56,0.00,,SCT080,0.00,213.00,VWS V14.01,2013-02-22 16:35:00,
2013-02-22 09:40:00,37.4,22.7,30.00,SE,134,0.0,0.0,55,0.00,,SCT080,0.00,211.00,VWS V14.01,2013-02-22 16:40:00,
2013-02-22 09:46:00,37.7,22.1,30.00,South,175,0.0,4.0,53,0.00,,SCT080,0.00,185.00,VWS V14.01,2013-02-22 16:46:00,
2013-02-22 09:51:00,37.8,22.2,30.00,South,175,0.0,2.0,53,0.00,,SCT080,0.00,148.00,VWS V14.01,2013-02-22 16:51:00,
2013-02-22 09:56:00,37.9,22.3,29.99,ESE,110,0.0,1.0,53,0.00,,SCT080,0.00,158.00,VWS V14.01,2013-02-22 16:56:00,
2013-02-22 10:01:00,38.0,22.4,30.00,South,190,0.0,4.0,53,0.00,,SCT050,0.00,171.00,VWS V14.01,2013-02-22 17:01:00,
2013-02-22 10:06:00,38.1,22.5,29.99,South,190,3.0,5.0,53,0.00,,SCT050,0.00,176.00,VWS V14.01,2013-02-22 17:06:00,
2013-02-22 10:11:00,38.2,22.1,29.99,South,190,0.0,4.0,52,0.00,,SCT050,0.00,181.00,VWS V14.01,2013-02-22 17:11:00,
2013-02-22 10:16:00,38.3,22.2,29.99,South,190,0.0,3.0,52,0.00,,SCT050,0.00,302.00,VWS V14.01,2013-02-22 17:16:00,
2013-02-22 10:21:00,39.3,23.2,29.99,South,190,1.0,3.0,52,0.00,,SCT050,0.00,705.00,VWS V14.01,2013-02-22 17:21:00,
2013-02-22 10:26:00,40.8,23.1,29.99,ESE,103,0.0,7.0,49,0.00,,SCT050,0.00,710.00,VWS V14.01,2013-02-22 17:26:00,
2013-02-22 10:31:00,41.9,23.2,29.99,ESE,118,0.0,7.0,47,0.00,,SCT050,0.00,747.00,VWS V14.01,2013-02-22 17:31:00,
2013-02-22 10:36:00,41.6,22.9,29.99,ESE,115,1.0,7.0,47,0.00,,SCT050,0.00,278.00,VWS V14.01,2013-02-22 17:36:00,
2013-02-22 10:41:00,42.4,23.1,29.99,South,178,4.0,5.0,46,0.00,,SCT050,0.00,916.00,VWS V14.01,2013-02-22 17:41:00,
2013-02-22 10:46:00,42.7,21.2,29.99,South,184,4.0,8.0,42,0.00,,SCT050,0.00,295.00,VWS V14.01,2013-02-22 17:46:00,
2013-02-22 10:51:00,42.4,21.0,29.99,South,183,2.0,5.0,42,0.00,,SCT050,0.00,272.00,VWS V14.01,2013-02-22 17:51:00,
2013-02-22 10:56:00,42.4,21.0,29.99,South,188,3.0,7.0,42,0.00,,SCT050,0.00,221.00,VWS V14.01,2013-02-22 17:56:00,
2013-02-22 11:01:00,42.2,20.8,29.99,SSW,207,2.0,9.0,42,0.00,,SCT060,0.00,199.00,VWS V14.01,2013-02-22 18:01:00,
2013-02-22 11:06:00,42.1,22.3,29.99,SSW,194,2.0,4.0,45,0.00,,SCT060,0.00,186.00,VWS V14.01,2013-02-22 18:06:00,
2013-02-22 11:11:00,42.0,23.2,29.99,SE,126,6.0,8.0,47,0.00,,SCT060,0.00,243.00,VWS V14.01,2013-02-22 18:11:00,
2013-02-22 11:16:00,42.0,23.2,29.99,SE,136,2.0,4.0,47,0.00,,SCT060,0.00,243.00,VWS V14.01,2013-02-22 18:16:00,
2013-02-22 11:21:00,42.0,23.2,29.98,South,173,1.0,5.0,47,0.00,,SCT060,0.00,250.00,VWS V14.01,2013-02-22 18:21:00,
2013-02-22 11:26:00,42.0,23.2,29.98,SSE,163,0.0,5.0,47,0.00,,SCT060,0.00,264.00,VWS V14.01,2013-02-22 18:26:00,
2013-02-22 11:31:00,41.9,23.2,29.98,South,172,1.0,9.0,47,0.00,,SCT060,0.00,193.00,VWS V14.01,2013-02-22 18:31:00,
2013-02-22 11:37:00,41.9,23.2,29.98,South,175,1.0,4.0,47,0.00,,SCT060,0.00,213.00,VWS V14.01,2013-02-22 18:37:00,
2013-02-22 11:42:00,41.9,23.2,29.98,ESE,121,0.0,6.0,47,0.00,,SCT060,0.00,199.00,VWS V14.01,2013-02-22 18:42:00,
2013-02-22 11:47:00,42.1,22.8,29.98,ESE,109,4.0,4.0,46,0.00,,SCT060,0.00,301.00,VWS V14.01,2013-02-22 18:47:00,
2013-02-22 11:52:00,42.3,23.0,29.98,SSE,162,3.0,6.0,46,0.00,,SCT060,0.00,230.00,VWS V14.01,2013-02-22 18:52:00,
2013-02-22 11:57:00,42.5,23.2,29.97,SSE,159,1.0,3.0,46,0.00,,SCT060,0.00,223.00,VWS V14.01,2013-02-22 18:57:00,
2013-02-22 12:02:00,42.6,22.8,29.97,ESE,105,4.0,7.0,45,0.00,,SCT055,0.00,202.00,VWS V14.01,2013-02-22 19:02:00,
2013-02-22 12:07:00,42.7,22.9,29.97,East,92,2.0,7.0,45,0.00,,SCT055,0.00,236.00,VWS V14.01,2013-02-22 19:07:00,
2013-02-22 12:12:00,42.7,22.9,29.96,SE,130,1.0,8.0,45,0.00,,SCT055,0.00,276.00,VWS V14.01,2013-02-22 19:12:00,
2013-02-22 12:17:00,43.4,23.0,29.96,ESE,106,1.0,9.0,44,0.00,,SCT055,0.00,320.00,VWS V14.01,2013-02-22 19:17:00,
2013-02-22 12:22:00,44.3,23.8,29.96,ESE,105,5.0,6.0,44,0.00,,SCT055,0.00,1056.00,VWS V14.01,2013-02-22 19:22:00,
2013-02-22 12:27:00,45.5,23.8,29.96,East,83,9.0,11.0,42,0.00,,SCT055,0.00,633.00,VWS V14.01,2013-02-22 19:27:00,
2013-02-22 12:32:00,46.2,23.2,29.95,ESE,107,7.0,8.0,40,0.00,,SCT055,0.00,290.00,VWS V14.01,2013-02-22 19:32:00,
2013-02-22 12:37:00,46.0,23.0,29.95,South,190,5.0,9.0,40,0.00,,SCT055,0.00,357.00,VWS V14.01,2013-02-22 19:37:00,
2013-02-22 12:42:00,46.7,23.7,29.95,SSE,150,0.0,5.0,40,0.00,,SCT055,0.00,1034.00,VWS V14.01,2013-02-22 19:42:00,
2013-02-22 12:47:00,46.8,23.2,29.95,South,169,0.0,9.0,39,0.00,,SCT055,0.00,320.00,VWS V14.01,2013-02-22 19:47:00,
2013-02-22 12:52:00,46.7,23.1,29.94,SE,136,2.0,7.0,39,0.00,,SCT055,0.00,274.00,VWS V14.01,2013-02-22 19:52:00,
2013-02-22 12:57:00,46.5,22.9,29.94,ESE,111,0.0,7.0,39,0.00,,SCT055,0.00,248.00,VWS V14.01,2013-02-22 19:57:00,
2013-02-22 13:02:00,46.2,23.2,29.94,South,169,0.0,9.0,40,0.00,,BKN060,0.00,276.00,VWS V14.01,2013-02-22 20:02:00,
2013-02-22 13:07:00,46.1,20.6,29.94,SSE,167,0.0,5.0,36,0.00,,BKN060,0.00,171.00,VWS V14.01,2013-02-22 20:07:00,
2013-02-22 13:12:00,46.1,19.3,29.94,SW,223,0.0,7.0,34,0.00,,BKN060,0.00,134.00,VWS V14.01,2013-02-22 20:12:00,
2013-02-22 13:17:00,45.9,17.7,29.94,SW,223,2.0,4.0,32,0.00,,BKN060,0.00,141.00,VWS V14.01,2013-02-22 20:17:00,
2013-02-22 13:22:00,45.6,18.2,29.94,SW,214,2.0,8.0,33,0.00,,BKN060,0.00,128.00,VWS V14.01,2013-02-22 20:22:00,
2013-02-22 13:27:00,45.3,19.3,29.94,NNW,333,4.0,10.0,35,0.00,,BKN060,0.00,114.00,VWS V14.01,2013-02-22 20:27:00,
2013-02-22 13:32:00,45.2,19.9,29.93,NW,305,2.0,12.0,36,0.00,,BKN060,0.00,104.00,VWS V14.01,2013-02-22 20:32:00,
2013-02-22 13:38:00,45.1,20.4,29.93,NW,322,2.0,9.0,37,0.00,,BKN060,0.00,132.00,VWS V14.01,2013-02-22 20:38:00,
2013-02-22 13:43:00,44.9,20.9,29.93,North,350,8.0,9.0,38,0.00,,BKN060,0.00,139.00,VWS V14.01,2013-02-22 20:43:00,
2013-02-22 13:48:00,44.8,20.8,29.93,NW,326,4.0,10.0,38,0.00,,BKN060,0.00,176.00,VWS V14.01,2013-02-22 20:48:00,
2013-02-22 13:53:00,44.7,21.3,29.93,North,5,6.0,12.0,39,0.00,,BKN060,0.00,179.00,VWS V14.01,2013-02-22 20:53:00,
2013-02-22 13:58:00,44.7,21.3,29.93,North,360,4.0,7.0,39,0.00,,BKN060,0.00,169.00,VWS V14.01,2013-02-22 20:58:00,
2013-02-22 14:03:00,44.7,20.7,29.93,NNW,338,6.0,6.0,38,0.00,,BKN180,0.00,151.00,VWS V14.01,2013-02-22 21:03:00,
2013-02-22 14:08:00,44.7,21.3,29.93,North,355,4.0,8.0,39,0.00,,BKN180,0.00,237.00,VWS V14.01,2013-02-22 21:08:00,
2013-02-22 14:13:00,44.9,21.5,29.93,North,360,4.0,9.0,39,0.00,,BKN180,0.00,248.00,VWS V14.01,2013-02-22 21:13:00,
2013-02-22 14:18:00,45.1,21.6,29.93,NNW,338,5.0,8.0,39,0.00,,BKN180,0.00,192.00,VWS V14.01,2013-02-22 21:18:00,
2013-02-22 14:23:00,45.1,21.6,29.93,NE,46,0.0,10.0,39,0.00,,BKN180,0.00,223.00,VWS V14.01,2013-02-22 21:23:00,
2013-02-22 14:28:00,45.0,21.5,29.93,ENE,67,4.0,8.0,39,0.00,,BKN180,0.00,227.00,VWS V14.01,2013-02-22 21:28:00,
2013-02-22 14:33:00,44.3,20.9,29.93,ENE,78,5.0,8.0,39,0.00,,BKN180,0.00,225.00,VWS V14.01,2013-02-22 21:33:00,
2013-02-22 14:38:00,43.8,21.1,29.93,NNE,15,9.0,9.0,40,0.00,,BKN180,0.00,209.00,VWS V14.01,2013-02-22 21:38:00,
2013-02-22 14:43:00,43.8,20.5,29.93,NNE,13,5.0,6.0,39,0.00,,BKN180,0.00,195.00,VWS V14.01,2013-02-22 21:43:00,
2013-02-22 14:48:00,43.8,20.5,29.93,ESE,102,1.0,7.0,39,0.00,,BKN180,0.00,178.00,VWS V14.01,2013-02-22 21:48:00,
2013-02-22 14:53:00,43.9,21.2,29.93,North,350,4.0,7.0,40,0.00,,BKN180,0.00,176.00,VWS V14.01,2013-02-22 21:53:00,
2013-02-22 14:58:00,44.0,20.6,29.92,NNW,348,0.0,8.0,39,0.00,,BKN180,0.00,186.00,VWS V14.01,2013-02-22 21:58:00,
2013-02-22 15:03:00,44.0,20.6,29.93,North,349,0.0,2.0,39,0.00,,BKN140,0.00,206.00,VWS V14.01,2013-02-22 22:03:00,
2013-02-22 15:08:00,44.3,20.9,29.93,NNW,342,1.0,6.0,39,0.00,,BKN140,0.00,121.00,VWS V14.01,2013-02-22 22:08:00,
2013-02-22 15:14:00,44.5,21.7,29.93,North,355,7.0,11.0,40,0.00,,BKN140,0.00,116.00,VWS V14.01,2013-02-22 22:14:00,
2013-02-22 15:19:00,44.6,21.2,29.93,NNE,19,5.0,8.0,39,0.00,,BKN140,0.00,120.00,VWS V14.01,2013-02-22 22:19:00,
2013-02-22 15:24:00,44.4,21.6,29.93,East,82,1.0,8.0,40,0.00,,BKN140,0.00,114.00,VWS V14.01,2013-02-22 22:24:00,
2013-02-22 15:29:00,44.3,21.5,29.93,NNE,15,1.0,2.0,40,0.00,,BKN140,0.00,83.00,VWS V14.01,2013-02-22 22:29:00,
2013-02-22 15:34:00,44.1,21.3,29.93,North,5,3.0,5.0,40,0.00,,BKN120,0.00,70.00,VWS V14.01,2013-02-22 22:34:00,
2013-02-22 15:39:00,44.0,21.2,29.93,NNE,14,0.0,4.0,40,0.00,,BKN120,0.00,76.00,VWS V14.01,2013-02-22 22:39:00,
2013-02-22 15:44:00,43.8,21.1,29.93,ENE,70,0.0,0.0,40,0.00,,BKN120,0.00,67.00,VWS V14.01,2013-02-22 22:44:00,
2013-02-22 15:49:00,43.7,21.6,29.93,East,81,0.0,0.0,41,0.00,,BKN120,0.00,62.00,VWS V14.01,2013-02-22 22:49:00,
2013-02-22 15:54:00,43.6,21.5,29.93,East,83,0.0,0.0,41,0.00,,BKN120,0.00,65.00,VWS V14.01,2013-02-22 22:54:00,
2013-02-22 15:59:00,43.6,21.5,29.93,East,83,0.0,0.0,41,0.00,,BKN120,0.00,60.00,VWS V14.01,2013-02-22 22:59:00,
2013-02-22 16:04:00,43.6,21.5,29.92,East,86,0.0,1.0,41,0.00,,BKN120,0.00,67.00,VWS V14.01,2013-02-22 23:04:00,
2013-02-22 16:09:00,43.6,20.9,29.93,SE,132,0.0,0.0,40,0.00,,BKN120,0.00,105.00,VWS V14.01,2013-02-22 23:09:00,
2013-02-22 16:14:00,43.7,21.6,29.93,SE,132,0.0,0.0,41,0.00,,BKN120,0.00,77.00,VWS V14.01,2013-02-22 23:14:00,
2013-02-22 16:19:00,43.7,21.6,29.93,South,190,5.0,5.0,41,0.00,,BKN120,0.00,114.00,VWS V14.01,2013-02-22 23:19:00,
2013-02-22 16:24:00,43.8,15.1,29.93,WSW,249,2.0,5.0,31,0.00,,BKN120,0.00,104.00,VWS V14.01,2013-02-22 23:24:00,
2013-02-22 16:29:00,44.0,18.8,29.93,NW,325,3.0,7.0,36,0.00,,BKN120,0.00,93.00,VWS V14.01,2013-02-22 23:29:00,
2013-02-22 16:34:00,44.1,19.5,29.93,NW,321,1.0,5.0,37,0.00,,BKN120,0.00,88.00,VWS V14.01,2013-02-22 23:34:00,
2013-02-22 16:39:00,44.2,16.9,29.93,West,275,3.0,8.0,33,0.00,,BKN120,0.00,90.00,VWS V14.01,2013-02-22 23:39:00,
2013-02-22 16:44:00,44.4,14.9,29.93,West,279,3.0,10.0,30,0.00,,BKN120,0.00,113.00,VWS V14.01,2013-02-22 23:44:00,
2013-02-22 16:50:00,44.5,14.2,29.93,West,274,4.0,10.0,29,0.00,,BKN120,0.00,102.00,VWS V14.01,2013-02-22 23:50:00,
2013-02-22 16:55:00,44.5,14.2,29.93,WNW,293,9.0,11.0,29,0.00,,BKN120,0.00,72.00,VWS V14.01,2013-02-22 23:55:00,
2013-02-22 17:00:00,44.3,13.3,29.93,WNW,289,5.0,6.0,28,0.00,,BKN120,0.00,54.00,VWS V14.01,2013-02-23 00:00:00,
2013-02-22 17:05:00,44.1,13.1,29.93,WNW,284,2.0,5.0,28,0.00,,BKN130,0.00,42.00,VWS V14.01,2013-02-23 00:05:00,
2013-02-22 17:10:00,43.9,12.9,29.93,West,273,14.0,14.0,28,0.00,,BKN130,0.00,40.00,VWS V14.01,2013-02-23 00:10:00,
2013-02-22 17:15:00,43.6,11.8,29.93,West,279,6.0,12.0,27,0.00,,BKN130,0.00,35.00,VWS V14.01,2013-02-23 00:15:00,
2013-02-22 17:20:00,43.3,11.6,29.94,WSW,250,4.0,12.0,27,0.00,,BKN130,0.00,32.00,VWS V14.01,2013-02-23 00:20:00,
2013-02-22 17:25:00,43.2,12.3,29.94,West,278,2.0,7.0,28,0.00,,BKN130,0.00,25.00,VWS V14.01,2013-02-23 00:25:00,
2013-02-22 17:30:00,42.9,11.2,29.94,West,279,1.0,6.0,27,0.00,,BKN200,0.00,21.00,VWS V14.01,2013-02-23 00:30:00,
2013-02-22 17:35:00,42.8,11.1,29.94,West,279,9.0,13.0,27,0.00,,BKN200,0.00,19.00,VWS V14.01,2013-02-23 00:35:00,
2013-02-22 17:40:00,42.7,11.9,29.94,NW,308,5.0,9.0,28,0.00,,BKN200,0.00,14.00,VWS V14.01,2013-02-23 00:40:00,
2013-02-22 17:45:00,42.7,11.9,29.95,WNW,292,8.0,10.0,28,0.00,,BKN200,0.00,11.00,VWS V14.01,2013-02-23 00:45:00,
2013-02-22 17:50:00,42.5,11.7,29.95,NNW,338,11.0,12.0,28,0.00,,BKN200,0.00,7.00,VWS V14.01,2013-02-23 00:50:00,
2013-02-22 17:55:00,42.4,11.6,29.95,WNW,294,3.0,11.0,28,0.00,,BKN200,0.00,0.00,VWS V14.01,2013-02-23 00:55:00,
2013-02-22 18:01:00,42.2,11.4,29.95,WNW,282,4.0,8.0,28,0.00,,BKN200,0.00,0.00,VWS V14.01,2013-02-23 01:01:00,
2013-02-22 18:06:00,42.1,12.1,29.96,WNW,300,3.0,11.0,29,0.00,,BKN200,0.00,0.00,VWS V14.01,2013-02-23 01:06:00,
2013-02-22 18:11:00,41.9,12.0,29.96,West,273,4.0,12.0,29,0.00,,BKN200,0.00,0.00,VWS V14.01,2013-02-23 01:11:00,
2013-02-22 18:16:00,41.7,11.8,29.96,WNW,288,3.0,11.0,29,0.00,,BKN200,0.00,0.00,VWS V14.01,2013-02-23 01:16:00,
2013-02-22 18:21:00,41.5,12.4,29.97,WSW,255,1.0,9.0,30,0.00,,BKN200,0.00,0.00,VWS V14.01,2013-02-23 01:21:00,
2013-02-22 18:26:00,41.3,12.2,29.97,WNW,296,8.0,13.0,30,0.00,,BKN200,0.00,0.00,VWS V14.01,2013-02-23 01:26:00,
2013-02-22 18:31:00,41.2,12.1,29.97,NW,319,6.0,14.0,30,0.00,,BKN200,0.00,0.00,VWS V14.01,2013-02-23 01:31:00,
2013-02-22 18:36:00,41.0,13.4,29.97,West,271,8.0,16.0,32,0.00,,BKN200,0.00,0.00,VWS V14.01,2013-02-23 01:36:00,
2013-02-22 18:41:00,40.8,15.3,29.98,WNW,286,4.0,15.0,35,0.00,,BKN200,0.00,0.00,VWS V14.01,2013-02-23 01:41:00,
2013-02-22 18:46:00,40.3,19.6,29.98,NW,321,10.0,17.0,43,0.00,,BKN200,0.00,0.00,VWS V14.01,2013-02-23 01:46:00,
2013-02-22 18:51:00,39.3,21.3,29.99,NW,313,5.0,18.0,48,0.00,,BKN200,0.00,0.00,VWS V14.01,2013-02-23 01:51:00,
2013-02-22 18:56:00,38.3,22.2,29.99,NW,308,10.0,20.0,52,0.00,,BKN200,0.00,0.00,VWS V14.01,2013-02-23 01:56:00,
2013-02-22 19:01:00,37.5,22.8,29.99,NW,315,15.0,16.0,55,0.00,,BKN120,0.00,0.00,VWS V14.01,2013-02-23 02:01:00,
2013-02-22 19:07:00,36.8,22.6,30.00,WNW,295,14.0,18.0,56,0.00,,BKN120,0.00,0.00,VWS V14.01,2013-02-23 02:07:00,
2013-02-22 19:12:00,36.2,22.5,30.00,WNW,294,6.0,18.0,57,0.00,,BKN120,0.00,0.00,VWS V14.01,2013-02-23 02:12:00,
2013-02-22 19:17:00,35.8,22.1,30.00,WNW,296,4.0,24.0,57,0.00,,BKN120,0.00,0.00,VWS V14.01,2013-02-23 02:17:00,
2013-02-22 19:22:00,35.4,22.1,30.01,WNW,301,12.0,21.0,58,0.00,,BKN120,0.00,0.00,VWS V14.01,2013-02-23 02:22:00,
2013-02-22 19:27:00,35.1,21.8,30.01,WNW,302,14.0,18.0,58,0.00,,BKN120,0.00,0.00,VWS V14.01,2013-02-23 02:27:00,
2013-02-22 19:32:00,34.8,21.5,30.01,WNW,292,7.0,28.0,58,0.00,,BKN120,0.00,0.00,VWS V14.01,2013-02-23 02:32:00,
2013-02-22 19:37:00,34.5,21.7,30.01,NW,307,14.0,25.0,59,0.00,,BKN120,0.00,0.00,VWS V14.01,2013-02-23 02:37:00,
2013-02-22 19:42:00,34.0,22.7,30.02,WNW,298,17.0,27.0,63,0.00,,BKN120,0.00,0.00,VWS V14.01,2013-02-23 02:42:00,
2013-02-22 19:47:00,33.3,23.5,30.02,WNW,286,7.0,20.0,67,0.00,,BKN120,0.00,0.00,VWS V14.01,2013-02-23 02:47:00,
2013-02-22 19:52:00,33.1,23.7,30.02,WNW,298,5.0,10.0,68,0.00,,BKN120,0.00,0.00,VWS V14.01,2013-02-23 02:52:00,
2013-02-22 19:57:00,33.3,22.8,30.02,WNW,288,7.0,11.0,65,0.00,,BKN120,0.00,0.00,VWS V14.01,2013-02-23 02:57:00,
2013-02-22 20:02:00,33.5,22.6,30.02,West,278,5.0,10.0,64,0.00,,BKN140,0.00,0.00,VWS V14.01,2013-02-23 03:02:00,
2013-02-22 20:07:00,33.6,22.7,30.03,West,269,4.0,9.0,64,0.00,,BKN140,0.00,0.00,VWS V14.01,2013-02-23 03:07:00,
2013-02-22 20:12:00,33.6,23.1,30.03,WSW,250,3.0,9.0,65,0.00,,BKN140,0.00,0.00,VWS V14.01,2013-02-23 03:12:00,
2013-02-22 20:17:00,33.6,23.1,30.03,WNW,288,3.0,8.0,65,0.00,,BKN140,0.00,0.00,VWS V14.01,2013-02-23 03:17:00,
2013-02-22 20:22:00,33.5,23.0,30.03,WSW,247,6.0,9.0,65,0.00,,BKN140,0.00,0.00,VWS V14.01,2013-02-23 03:22:00,
2013-02-22 20:27:00,33.4,23.3,30.04,West,269,3.0,8.0,66,0.00,,BKN140,0.00,0.00,VWS V14.01,2013-02-23 03:27:00,
2013-02-22 20:32:00,33.2,23.1,30.04,West,277,1.0,8.0,66,0.00,,BKN140,0.00,0.00,VWS V14.01,2013-02-23 03:32:00,
2013-02-22 20:37:00,33.0,22.9,30.04,West,277,1.0,5.0,66,0.00,,BKN140,0.00,0.00,VWS V14.01,2013-02-23 03:37:00,
2013-02-22 20:42:00,32.9,22.8,30.05,WNW,294,8.0,9.0,66,0.00,,BKN140,0.00,0.00,VWS V14.01,2013-02-23 03:42:00,
2013-02-22 20:48:00,32.9,22.4,30.05,WNW,287,4.0,9.0,65,0.00,,BKN140,0.00,0.00,VWS V14.01,2013-02-23 03:48:00,
2013-02-22 20:53:00,32.8,22.3,30.05,NW,306,3.0,9.0,65,0.00,,BKN140,0.00,0.00,VWS V14.01,2013-02-23 03:53:00,
2013-02-22 20:58:00,32.8,22.3,30.05,WNW,300,1.0,7.0,65,0.00,,BKN140,0.00,0.00,VWS V14.01,2013-02-23 03:58:00,
2013-02-22 21:03:00,32.7,22.2,30.05,WNW,286,3.0,8.0,65,0.00,,BKN140,0.00,0.00,VWS V14.01,2013-02-23 04:03:00,
2013-02-22 21:08:00,32.6,22.1,30.05,WNW,285,2.0,4.0,65,0.00,,BKN140,0.00,0.00,VWS V14.01,2013-02-23 04:08:00,
2013-02-22 21:13:00,32.4,22.0,30.05,WNW,286,0.0,5.0,65,0.00,,BKN140,0.00,0.00,VWS V14.01,2013-02-23 04:13:00,
2013-02-22 21:18:00,32.3,21.9,30.05,WNW,286,2.0,3.0,65,0.00,,BKN140,0.00,0.00,VWS V14.01,2013-02-23 04:18:00,
2013-02-22 21:23:00,32.3,21.9,30.05,WNW,285,1.0,4.0,65,0.00,,BKN140,0.00,0.00,VWS V14.01,2013-02-23 04:23:00,
2013-02-22 21:28:00,32.1,21.3,30.06,WNW,286,2.0,6.0,64,0.00,,BKN140,0.00,0.00,VWS V14.01,2013-02-23 04:28:00,
2013-02-22 21:33:00,32.0,20.9,30.06,WNW,286,2.0,6.0,63,0.00,,BKN140,0.00,0.00,VWS V14.01,2013-02-23 04:33:00,
2013-02-22 21:38:00,31.9,20.4,30.06,WNW,286,0.0,4.0,62,0.00,,BKN140,0.00,0.00,VWS V14.01,2013-02-23 04:38:00,
2013-02-22 21:43:00,31.8,20.3,30.06,WNW,286,0.0,2.0,62,0.00,,BKN140,0.00,0.00,VWS V14.01,2013-02-23 04:43:00,
2013-02-22 21:48:00,31.6,20.1,30.06,WNW,286,0.0,0.0,62,0.00,,BKN140,0.00,0.00,VWS V14.01,2013-02-23 04:48:00,
2013-02-22 21:53:00,31.4,20.3,30.07,WNW,286,1.0,3.0,63,0.00,,BKN140,0.00,0.00,VWS V14.01,2013-02-23 04:53:00,
2013-02-22 21:58:00,31.3,20.5,30.07,WNW,286,0.0,0.0,64,0.00,,BKN140,0.00,0.00,VWS V14.01,2013-02-23 04:58:00,
2013-02-22 22:00:00,31.3,20.5,30.07,WNW,286,0.0,0.0,64,0.00,,BKN140,0.00,0.00,VWS V14.01,2013-02-23 05:00:00,
2013-02-22 22:01:00,31.2,20.5,30.07,WNW,286,0.0,0.0,64,0.00,,BKN140,0.00,0.00,VWS V14.01,2013-02-23 05:01:00,
2013-02-22 22:06:00,31.0,20.3,30.07,WNW,286,0.0,0.0,64,0.00,,BKN140,0.00,0.00,VWS V14.01,2013-02-23 05:06:00,
2013-02-22 22:11:00,30.9,20.2,30.07,WNW,286,0.0,0.0,64,0.00,,BKN140,0.00,0.00,VWS V14.01,2013-02-23 05:11:00,
2013-02-22 22:16:00,30.6,19.5,30.07,WNW,286,1.0,2.0,63,0.00,,BKN140,0.00,0.00,VWS V14.01,2013-02-23 05:16:00,
2013-02-22 22:21:00,30.5,19.4,30.08,WNW,286,1.0,2.0,63,0.00,,BKN140,0.00,0.00,VWS V14.01,2013-02-23 05:21:00,
2013-02-22 22:26:00,30.3,18.9,30.07,WNW,286,0.0,0.0,62,0.00,,BKN140,0.00,0.00,VWS V14.01,2013-02-23 05:26:00,
2013-02-22 22:31:00,30.1,18.7,30.07,WNW,286,0.0,0.0,62,0.00,,BKN140,0.00,0.00,VWS V14.01,2013-02-23 05:31:00,
2013-02-22 22:36:00,29.9,18.5,30.07,WNW,286,0.0,0.0,62,0.00,,BKN140,0.00,0.00,VWS V14.01,2013-02-23 05:36:00,
2013-02-22 22:42:00,29.7,17.9,30.07,WNW,286,0.0,0.0,61,0.00,,BKN140,0.00,0.00,VWS V14.01,2013-02-23 05:42:00,
2013-02-22 22:47:00,29.3,17.9,30.07,WNW,286,0.0,0.0,62,0.00,,BKN140,0.00,0.00,VWS V14.01,2013-02-23 05:47:00,
2013-02-22 22:52:00,29.1,17.7,30.07,WNW,286,0.0,1.0,62,0.00,,BKN140,0.00,0.00,VWS V14.01,2013-02-23 05:52:00,
2013-02-22 22:57:00,28.8,17.1,30.07,WNW,286,0.0,2.0,61,0.00,,BKN140,0.00,0.00,VWS V14.01,2013-02-23 05:57:00,
2013-02-22 23:02:00,28.6,16.9,30.07,WNW,286,0.0,2.0,61,0.00,,BKN160,0.00,0.00,VWS V14.01,2013-02-23 06:02:00,
2013-02-22 23:07:00,28.3,16.6,30.07,WNW,285,0.0,1.0,61,0.00,,BKN160,0.00,0.00,VWS V14.01,2013-02-23 06:07:00,
2013-02-22 23:12:00,28.1,16.8,30.07,WNW,286,0.0,2.0,62,0.00,,BKN160,0.00,0.00,VWS V14.01,2013-02-23 06:12:00,
2013-02-22 23:17:00,27.7,16.4,30.07,WNW,286,2.0,2.0,62,0.00,,BKN160,0.00,0.00,VWS V14.01,2013-02-23 06:17:00,
2013-02-22 23:22:00,27.4,15.7,30.07,WNW,286,0.0,2.0,61,0.00,,BKN160,0.00,0.00,VWS V14.01,2013-02-23 06:22:00,
2013-02-22 23:27:00,27.0,15.7,30.07,WNW,286,0.0,0.0,62,0.00,,BKN160,0.00,0.00,VWS V14.01,2013-02-23 06:27:00,
2013-02-22 23:32:00,26.7,15.4,30.07,WNW,286,0.0,0.0,62,0.00,,BKN160,0.00,0.00,VWS V14.01,2013-02-23 06:32:00,
2013-02-22 23:37:00,26.5,15.3,30.07,WNW,286,0.0,0.0,62,0.00,,BKN160,0.00,0.00,VWS V14.01,2013-02-23 06:37:00,
2013-02-22 23:42:00,26.2,15.0,30.07,WNW,286,0.0,1.0,62,0.00,,BKN160,0.00,0.00,VWS V14.01,2013-02-23 06:42:00,
2013-02-22 23:47:00,26.0,14.8,30.07,WNW,286,0.0,1.0,62,0.00,,BKN160,0.00,0.00,VWS V14.01,2013-02-23 06:47:00,
2013-02-22 23:52:00,25.8,14.6,30.07,WNW,286,0.0,2.0,62,0.00,,BKN160,0.00,0.00,VWS V14.01,2013-02-23 06:52:00,
2013-02-22 23:57:00,25.7,14.5,30.07,WNW,285,0.0,1.0,62,0.00,,BKN160,0.00,0.00,VWS V14.01,2013-02-23 06:57:00,